K3HW Weather Reports


Display with metric or nautical units.
time (UTC)temp
F
wind
direction
speed
MPH
gust
MPH
rain 1hr
in
rain 24hr
in
rain mn
in
humidity
%
barometer
mb
20260505153152 80 355 4.0 7.0 0.00 0.00 0.00 42 1014.2
20260505152649 80 267 2.0 2.0 0.00 0.00 0.00 43 1014.3
20260505152144 79 207 3.0 3.0 0.00 0.00 0.00 43 1014.1
20260505151640 79 28 1.0 2.0 0.00 0.00 0.00 44 1014.4
20260505151137 79 272 5.0 6.0 0.00 0.00 0.00 45 1014.2
20260505150633 78 36 1.0 1.0 0.00 0.00 0.00 45 1014.2
20260505150131 77 353 3.0 4.0 0.00 0.00 0.00 46 1014.2
20260505140559 72 134 2.0 2.0 0.00 0.00 0.00 51 1014.6
20260505125012 67 30 1.0 1.0 0.00 0.00 0.00 59 1015.1
20260505124509 66 56 0.0 0.0 0.00 0.00 0.00 59 1014.9
20260505124005 66 50 1.0 2.0 0.00 0.00 0.00 59 1015.1
20260505123502 66 134 2.0 3.0 0.00 0.00 0.00 59 1015.2
20260505122958 66 6 2.0 2.0 0.00 0.00 0.00 60 1015.1
20260505122455 65 160 2.0 3.0 0.00 0.00 0.00 60 1014.9
20260505121952 65 10 0.0 1.0 0.00 0.00 0.00 60 1014.7
20260505121449 65 42 1.0 1.0 0.00 0.00 0.00 60 1014.6
20260505120945 64 39 1.0 1.0 0.00 0.00 0.00 61 1014.7
20260505120442 64 21 1.0 1.0 0.00 0.00 0.00 61 1014.6
20260505115941 64 159 2.0 3.0 0.00 0.00 0.00 61 1014.7
20260505115437 64 39 0.0 0.0 0.00 0.00 0.00 62 1014.7
20260505114935 63 50 1.0 1.0 0.00 0.00 0.00 62 1014.5
20260505114431 63 24 0.0 1.0 0.00 0.00 0.00 62 1014.7
20260505113928 63 32 1.0 1.0 0.00 0.00 0.00 63 1014.6
20260505113425 63 29 1.0 1.0 0.00 0.00 0.00 63 1014.8
20260505112920 63 34 0.0 0.0 0.00 0.00 0.00 64 1014.5
20260505112418 62 39 0.0 0.0 0.00 0.00 0.00 64 1014.4
20260505111914 62 38 0.0 0.0 0.00 0.00 0.00 66 1014.6
20260505111409 61 37 0.0 0.0 0.00 0.00 0.00 66 1014.4
20260505110905 60 47 0.0 0.0 0.00 0.00 0.00 67 1014.5
20260505110402 58 37 0.0 0.0 0.00 0.00 0.00 71 1014.3
20260505101833 54 39 0.0 0.0 0.00 0.00 0.00 76 1014.2
20260505101328 54 37 0.0 0.0 0.00 0.00 0.00 76 1014.1
20260505100824 54 38 0.0 0.0 0.00 0.00 0.00 76 1014.1
20260505100321 54 43 0.0 0.0 0.00 0.00 0.00 76 1014.1
20260505095816 55 40 0.0 0.0 0.00 0.00 0.00 75 1013.7
20260505095314 55 42 0.0 0.0 0.00 0.00 0.00 74 1014.0
20260505094810 56 36 0.0 0.0 0.00 0.00 0.00 73 1014.0
20260505094307 56 37 0.0 0.0 0.00 0.00 0.00 72 1013.9
20260505093802 56 39 0.0 0.0 0.00 0.00 0.00 72 1013.7
20260505093300 57 37 0.0 0.0 0.00 0.00 0.00 71 1013.6
20260505092757 57 39 0.0 0.0 0.00 0.00 0.00 71 1013.9
20260505092255 57 39 0.0 0.0 0.00 0.00 0.00 70 1013.5
20260505091752 57 37 0.0 0.0 0.00 0.00 0.00 70 1013.7
20260505091250 57 35 0.0 0.0 0.00 0.00 0.00 70 1013.7
20260505090748 57 36 0.0 0.0 0.00 0.00 0.00 70 1013.7
20260505090246 57 36 0.0 0.0 0.00 0.00 0.00 69 1013.7
20260505085743 57 38 0.0 0.0 0.00 0.00 0.00 69 1013.6
20260505085241 58 39 0.0 0.0 0.00 0.00 0.00 68 1013.4
20260505084738 58 42 0.0 0.0 0.00 0.00 0.00 68 1013.4
20260505084238 58 49 0.0 0.0 0.00 0.00 0.00 67 1013.2
20260505083734 58 37 0.0 0.0 0.00 0.00 0.00 67 1013.6
20260505083230 59 37 0.0 0.0 0.00 0.00 0.00 67 1013.7
20260505082726 59 36 0.0 0.0 0.00 0.00 0.00 66 1013.7
20260505082224 59 39 0.0 1.0 0.00 0.00 0.00 66 1013.9
20260505081719 59 39 0.0 0.0 0.00 0.00 0.00 66 1013.5
20260505081217 59 41 0.0 0.0 0.00 0.00 0.00 65 1013.7
20260505080714 60 37 0.0 0.0 0.00 0.00 0.00 65 1013.5
20260505080210 60 40 0.0 0.0 0.00 0.00 0.00 64 1013.6
20260505075706 60 39 0.0 0.0 0.00 0.00 0.00 64 1013.6
20260505075203 61 39 0.0 0.0 0.00 0.00 0.00 63 1013.7
20260505074700 60 51 0.0 0.0 0.00 0.00 0.00 63 1013.7
20260505074157 60 41 0.0 0.0 0.00 0.00 0.00 63 1013.9
20260505073655 61 39 0.0 0.0 0.00 0.00 0.00 62 1013.6
20260505073153 61 37 0.0 0.0 0.00 0.00 0.00 62 1013.7
20260505072648 61 36 0.0 0.0 0.00 0.00 0.00 62 1013.5
20260505072145 61 7 1.0 1.0 0.00 0.00 0.00 61 1013.5
20260505071640 62 40 0.0 0.0 0.00 0.00 0.00 62 1013.5
20260505071138 62 38 0.0 1.0 0.00 0.00 0.00 61 1013.6
20260505070635 62 40 0.0 1.0 0.00 0.00 0.00 61 1013.7
20260505070131 62 40 0.0 0.0 0.00 0.00 0.00 60 1013.6
20260505065627 62 61 0.0 1.0 0.00 0.00 0.00 61 1013.6
20260505065124 62 38 0.0 0.0 0.00 0.00 0.00 61 1013.5
20260505064621 62 349 3.0 4.0 0.00 0.00 0.00 61 1013.7
20260505064120 62 27 1.0 1.0 0.00 0.00 0.00 61 1013.6
20260505063617 62 29 0.0 0.0 0.00 0.00 0.00 61 1013.7
20260505063112 61 36 0.0 0.0 0.00 0.00 0.00 61 1013.5
20260505062609 61 8 1.0 1.0 0.00 0.00 0.00 61 1013.7
20260505062106 61 29 1.0 2.0 0.00 0.00 0.00 61 1013.7
20260505061603 61 52 0.0 0.0 0.00 0.00 0.00 61 1013.7
20260505061101 60 37 0.0 0.0 0.00 0.00 0.00 62 1013.4
20260505060559 60 38 0.0 0.0 0.00 0.00 0.00 61 1013.6
20260505060055 60 32 0.0 1.0 0.00 0.00 0.00 61 1013.6
20260505055550 60 39 0.0 0.0 0.00 0.00 0.00 61 1013.7
20260505055048 61 37 0.0 0.0 0.00 0.00 0.00 60 1013.9
20260505054545 61 38 1.0 1.0 0.00 0.00 0.00 60 1013.6
20260505054043 60 333 1.0 2.0 0.00 0.00 0.00 61 1013.7
20260505053539 60 41 0.0 0.0 0.00 0.00 0.00 60 1013.5
20260505053036 61 42 0.0 0.0 0.00 0.00 0.00 59 1013.5
20260505052533 61 40 0.0 1.0 0.00 0.00 0.00 59 1013.5
20260505052031 61 52 0.0 0.0 0.00 0.00 0.00 59 1013.6
20260505051527 62 34 1.0 1.0 0.00 0.00 0.00 58 1013.9
20260505051026 62 47 0.0 1.0 0.00 0.00 0.00 58 1013.7
20260505050524 62 51 1.0 1.0 0.00 0.00 0.00 57 1013.7
20260505041451 63 58 1.0 2.0 0.00 0.00 0.00 54 1013.6
20260505040948 63 49 0.0 1.0 0.00 0.00 0.00 54 1013.6
20260505040446 62 52 1.0 1.0 0.00 0.00 0.00 54 1013.6
20260505035942 63 43 1.0 1.0 0.00 0.00 0.00 54 1013.6
20260505035438 63 38 1.0 1.0 0.00 0.00 0.00 54 1013.7
20260505034936 63 37 0.0 0.0 0.00 0.00 0.00 53 1013.4
20260505034432 63 42 0.0 1.0 0.00 0.00 0.00 52 1013.5
20260505033929 64 52 0.0 0.0 0.00 0.00 0.00 51 1013.4
20260505033426 63 117 2.0 3.0 0.00 0.00 0.00 50 1013.4
20260505032924 63 61 0.0 1.0 0.00 0.00 0.00 52 1013.4
20260505032421 64 65 0.0 0.0 0.00 0.00 0.00 50 1013.6
20260505031918 64 90 0.0 1.0 0.00 0.00 0.00 50 1013.6
20260505031414 63 22 1.0 1.0 0.00 0.00 0.00 51 1013.4
20260505030912 62 46 0.0 0.0 0.00 0.00 0.00 52 1013.6
20260505030407 63 35 0.0 0.0 0.00 0.00 0.00 52 1013.5
20260505025903 63 48 0.0 0.0 0.00 0.00 0.00 52 1013.5
20260505025401 63 50 0.0 0.0 0.00 0.00 0.00 51 1013.6
20260505024859 63 35 0.0 0.0 0.00 0.00 0.00 51 1013.6
20260505024356 63 44 0.0 0.0 0.00 0.00 0.00 51 1013.7
20260505023853 63 35 0.0 1.0 0.00 0.00 0.00 51 1013.9
20260505023350 62 53 1.0 1.0 0.00 0.00 0.00 52 1013.7
20260505022848 62 40 0.0 0.0 0.00 0.00 0.00 53 1014.0
20260505022344 61 43 0.0 0.0 0.00 0.00 0.00 54 1013.9
20260505021842 62 41 0.0 0.0 0.00 0.00 0.00 53 1013.7
20260505021338 63 40 0.0 0.0 0.00 0.00 0.00 52 1013.9
20260505020834 63 47 0.0 0.0 0.00 0.00 0.00 52 1014.0
20260505020330 63 40 1.0 1.0 0.00 0.00 0.00 51 1013.9
20260505015827 62 42 0.0 0.0 0.00 0.00 0.00 54 1013.6
20260505015324 62 40 0.0 0.0 0.00 0.00 0.00 54 1013.9
20260505014821 62 42 0.0 0.0 0.00 0.00 0.00 52 1013.9
20260505014318 62 21 0.0 0.0 0.00 0.00 0.00 51 1014.0
20260505013814 61 37 0.0 0.0 0.00 0.00 0.00 53 1013.9
20260505013312 60 41 0.0 0.0 0.00 0.00 0.00 59 1014.0
20260505012810 60 40 0.0 0.0 0.00 0.00 0.00 57 1014.0
20260505012308 60 41 0.0 0.0 0.00 0.00 0.00 58 1014.0
20260505011803 60 41 0.0 0.0 0.00 0.00 0.00 57 1014.0
20260505011300 60 38 0.0 0.0 0.00 0.00 0.00 57 1013.6
20260505010756 61 41 0.0 0.0 0.00 0.00 0.00 56 1013.7
20260505010252 62 39 0.0 0.0 0.00 0.00 0.00 54 1013.7
20260505005748 62 41 0.0 0.0 0.00 0.00 0.00 52 1013.4
20260505005246 62 40 0.0 0.0 0.00 0.00 0.00 52 1013.4
20260505004743 63 39 0.0 0.0 0.00 0.00 0.00 51 1013.5
20260505004239 64 41 0.0 0.0 0.00 0.00 0.00 51 1013.3
20260505003736 64 43 0.0 0.0 0.00 0.00 0.00 49 1013.5
20260505003234 65 42 0.0 0.0 0.00 0.00 0.00 48 1013.4
20260505002730 65 46 0.0 0.0 0.00 0.00 0.00 46 1013.2
20260505002228 66 42 0.0 0.0 0.00 0.00 0.00 47 1013.4
20260505001725 66 45 0.0 0.0 0.00 0.00 0.00 45 1013.3
20260505001223 66 47 0.0 0.0 0.00 0.00 0.00 44 1013.1
20260505000719 67 48 0.0 1.0 0.00 0.00 0.00 44 1013.1
20260505000218 67 41 0.0 0.0 0.00 0.00 0.00 43 1013.1
20260504235714 67 67 0.0 1.0 0.00 0.00 0.00 43 1013.0
20260504235210 68 42 0.0 0.0 0.00 0.00 0.00 44 1012.9
20260504234707 68 71 1.0 1.0 0.00 0.00 0.00 42 1013.1
20260504234204 69 43 0.0 0.0 0.00 0.00 0.00 42 1013.1
20260504233700 69 57 0.0 0.0 0.00 0.00 0.00 42 1012.8
20260504233156 69 41 1.0 2.0 0.00 0.00 0.00 40 1013.0
20260504232654 70 42 1.0 2.0 0.00 0.00 0.00 40 1013.0
20260504232151 70 55 1.0 2.0 0.00 0.00 0.00 40 1013.0
20260504231647 70 66 0.0 1.0 0.00 0.00 0.00 39 1012.9
20260504231144 71 36 1.0 1.0 0.00 0.00 0.00 39 1013.0
20260504230640 71 56 0.0 0.0 0.00 0.00 0.00 38 1012.8
20260504230139 71 150 2.0 2.0 0.00 0.00 0.00 38 1013.0
20260504225637 71 79 2.0 3.0 0.00 0.00 0.00 37 1013.0
20260504225132 71 81 1.0 2.0 0.00 0.00 0.00 38 1012.9
20260504224630 72 357 3.0 3.0 0.00 0.00 0.00 38 1012.7
20260504224126 72 39 1.0 1.0 0.00 0.00 0.00 40 1012.9
20260504223623 72 8 2.0 2.0 0.00 0.00 0.00 38 1012.8
20260504223119 72 78 2.0 2.0 0.00 0.00 0.00 37 1013.0
20260504222616 72 45 2.0 2.0 0.00 0.00 0.00 38 1013.1
20260504222114 72 55 2.0 3.0 0.00 0.00 0.00 37 1013.1
20260504221611 73 83 2.0 2.0 0.00 0.00 0.00 37 1013.1
20260504221108 73 352 3.0 3.0 0.00 0.00 0.00 38 1013.2
20260504220604 72 57 2.0 3.0 0.00 0.00 0.00 38 1013.2
20260504220101 72 181 4.0 4.0 0.00 0.00 0.00 37 1013.3
20260504215557 73 131 2.0 3.0 0.00 0.00 0.00 37 1013.1
20260504215055 74 332 2.0 2.0 0.00 0.00 0.00 39 1013.2
20260504214550 74 84 1.0 2.0 0.00 0.00 0.00 37 1013.3
20260504214047 73 31 2.0 2.0 0.00 0.00 0.00 38 1013.3
20260504213544 73 37 2.0 4.0 0.00 0.00 0.00 36 1013.4
20260504213041 73 95 2.0 2.0 0.00 0.00 0.00 40 1013.1
20260504212537 73 226 2.0 4.0 0.00 0.00 0.00 37 1013.3
20260504212034 73 44 1.0 2.0 0.00 0.00 0.00 38 1013.3
20260504211531 73 295 2.0 2.0 0.00 0.00 0.00 38 1013.4
20260504211028 73 274 1.0 2.0 0.00 0.00 0.00 39 1013.1
20260504210525 72 37 0.0 0.0 0.00 0.00 0.00 40 1013.2
20260504210022 73 225 5.0 7.0 0.00 0.00 0.00 37 1013.4
20260504205520 73 22 1.0 1.0 0.00 0.00 0.00 41 1013.3
20260504205018 73 266 2.0 3.0 0.00 0.00 0.00 41 1013.2
20260504204515 72 312 3.0 4.0 0.00 0.00 0.00 40 1013.4
20260504204014 72 347 3.0 4.0 0.00 0.00 0.00 38 1013.3
20260504203512 73 272 4.0 6.0 0.00 0.00 0.00 37 1013.3
20260504203009 72 71 0.0 1.0 0.00 0.00 0.00 38 1013.5
20260504202504 72 247 4.0 4.0 0.00 0.00 0.00 38 1013.5
20260504202001 72 188 3.0 4.0 0.00 0.00 0.00 37 1013.4
20260504201458 72 146 4.0 4.0 0.00 0.00 0.00 39 1013.6
20260504200956 72 267 3.0 4.0 0.00 0.00 0.00 38 1013.5
20260504200452 72 288 4.0 6.0 0.00 0.00 0.00 38 1013.6
20260504195949 72 348 2.0 3.0 0.00 0.00 0.00 38 1013.6
20260504195445 72 247 4.0 4.0 0.00 0.00 0.00 39 1013.7
20260504194942 72 236 3.0 3.0 0.00 0.00 0.00 37 1013.6
20260504194438 72 252 2.0 3.0 0.00 0.00 0.00 40 1013.9
20260504193934 72 245 3.0 3.0 0.00 0.00 0.00 37 1013.6
20260504193431 72 278 4.0 6.0 0.00 0.00 0.00 37 1013.6
20260504192930 72 232 5.0 8.0 0.00 0.00 0.00 38 1013.9
20260504192427 72 46 1.0 2.0 0.00 0.00 0.00 39 1013.9
20260504191926 71 150 2.0 3.0 0.00 0.00 0.00 38 1014.1
20260504191423 71 34 2.0 3.0 0.00 0.00 0.00 39 1014.1
20260504190918 71 108 3.0 3.0 0.00 0.00 0.00 37 1013.9
20260504190414 71 99 4.0 7.0 0.00 0.00 0.00 37 1014.3
20260504185911 71 241 5.0 7.0 0.00 0.00 0.00 38 1014.4
20260504185408 71 141 3.0 3.0 0.00 0.00 0.00 40 1014.4
20260504184904 71 38 1.0 2.0 0.00 0.00 0.00 37 1014.4
20260504184400 71 283 3.0 3.0 0.00 0.00 0.00 37 1014.6
20260504183856 71 239 3.0 3.0 0.00 0.00 0.00 37 1014.5
20260504183354 71 280 3.0 4.0 0.00 0.00 0.00 38 1014.5
20260504182851 71 33 1.0 2.0 0.00 0.00 0.00 38 1014.8
20260504182348 72 312 3.0 4.0 0.00 0.00 0.00 37 1014.6
20260504181845 72 35 0.0 1.0 0.00 0.00 0.00 39 1014.7
20260504181343 71 4 0.0 1.0 0.00 0.00 0.00 38 1014.8
20260504180841 70 265 3.0 3.0 0.00 0.00 0.00 37 1014.7
20260504180339 70 32 1.0 1.0 0.00 0.00 0.00 37 1015.0
20260504175837 70 18 1.0 1.0 0.00 0.00 0.00 39 1015.0
20260504175333 70 29 5.0 7.0 0.00 0.00 0.00 37 1015.1
20260504174832 70 33 2.0 4.0 0.00 0.00 0.00 40 1015.1
20260504174329 70 42 2.0 2.0 0.00 0.00 0.00 39 1015.3
20260504173826 70 102 3.0 4.0 0.00 0.00 0.00 38 1015.4
20260504173323 70 347 3.0 3.0 0.00 0.00 0.00 37 1015.1
20260504172820 69 280 4.0 4.0 0.00 0.00 0.00 41 1015.3
20260504172316 69 270 4.0 6.0 0.00 0.00 0.00 38 1015.4
20260504171812 70 114 1.0 2.0 0.00 0.00 0.00 39 1015.3
20260504171309 69 144 4.0 7.0 0.00 0.00 0.00 38 1015.6
20260504170807 69 279 3.0 4.0 0.00 0.00 0.00 37 1015.5
20260504170303 69 323 2.0 2.0 0.00 0.00 0.00 37 1015.5
20260504160222 69 143 4.0 6.0 0.00 0.00 0.00 37 1016.4